Regional Weather Roundup
Issued by NWS

Home | Current Version | Previous Version | Graphics & Text | Print | Product List | Glossary On
Versions: 1 2 3 4 5 6 7 8 9 10 11 12 13 14 15 16 17 18 19 20 21 22 23 24 25 26 27 28 29 30 31 32 33 34 35 36 37 38 39 40 41 42 43 44 45 46 47 48 49 50
000
ASUS43 KMPX 212301
RWRMN
WEATHER ROUNDUP FOR MINNESOTA
NATIONAL WEATHER SERVICE TWIN CITIES/CHANHASSEN MN
600 PM CDT FRI JUL 21 2017


NOTE: "FAIR" INDICATES FEW OR NO CLOUDS BELOW 12,000 FEET WITH NO
SIGNIFICANT WEATHER AND/OR OBSTRUCTIONS TO VISIBILITY. N/A MEANS
CURRENT SKY AND/OR WEATHER CONDITIONS ARE NOT AVAILABLE.

MNZ060>063-068>070-220000-
   Twin Cities Metro

CITY           SKY/WX    TMP DP  RH WIND       PRES   REMARKS
TWIN CITIES    PTSUNNY   83  66  56 S12       29.83F
ST PAUL        PTSUNNY   82  70  66 S10       29.83F
CRYSTAL        MOSUNNY   82  66  58 S10       29.81F
BLAINE         PTSUNNY   84  70  61 SW8       29.83F
LAKEVILLE      MOSUNNY   79  70  73 S7        29.85F
EDEN PRAIRIE   SUNNY     83  68  60 S13       29.82F
SOUTH ST PAUL  MOSUNNY   81  67  61 SE7       29.83F
LAKE ELMO      FAIR      81  70  69 S9        29.85F
$$
MNZ001>005-007-008-013>017-022>024-027-028-220000-
   Northwest Minnesota

CITY           SKY/WX    TMP DP  RH WIND       PRES   REMARKS
BEMIDJI        TSTM      65  63  92 NE21G28   29.78R
HALLOCK        PTSUNNY   79  66  65 E15G23    29.77R
ROSEAU         CLOUDY    72  64  78 E14       29.82R
WARROAD        PTSUNNY   70  64  83 NE13G18   29.85R
THIEF RVR FALL CLOUDY    73  70  88 E10       29.78S
CROOKSTON      CLOUDY    73  68  83 N12       29.75R
FOSSTON        MOSUNNY   70  66  88 N7        29.76F
DETROIT LAKES  CLOUDY    81  72  74 MISG        N/A  THUNDER
MOORHEAD       TSTM      81  70  69 N20G45    29.76R
PARK RAPIDS    CLOUDY    83  70  64 SW5       29.83R
MAHNOMEN       FAIR      73  65  77 SE9       29.84R
$$
MNZ006-009>011-018-025>026-220000-
   North Central Minnesota

CITY           SKY/WX    TMP DP  RH WIND       PRES   REMARKS
BAUDETTE       LGT RAIN  72  64  76 E6        29.83R
FLAG ISLAND    CLOUDY    70  59  68 NE12      29.84R
INTL FALLS     CLOUDY    72  61  68 E6        29.83S
WASKISH        TSTM      66  64  94 N8        29.89R
BIG FORK       CLOUDY    64  57  77 SE3       29.83S
LONGVILLE      CLOUDY    81  70  69 SE7       29.77F
GRAND RAPIDS   CLOUDY    77  65  66 N16G22    29.84R
CRANE LAKE     LGT RAIN  70  66  88 CALM      29.86S
ORR            LGT RAIN  63  59  88 SE8       29.81F
COOK           RAIN      66  61  82 SW7       29.93R
WALKER         TSTM      68  64  89 W22G38    29.86R
$$
MNZ012-019>021-037-220000-
   Northeast Minnesota

CITY           SKY/WX    TMP DP  RH WIND       PRES   REMARKS
DULUTH         MOSUNNY   74  64  71 E12       29.86R
ELY            MOSUNNY   81  57  44 CALM      29.87R
HIBBING        CLOUDY    76  62  62 NE10      29.84R
EVELETH        RAIN      78  57  48 NE5       29.88R
DULUTH HARBOR  SUNNY     66  61  82 NE10      29.85F
TWO HARBORS    SUNNY     75  57  53 E15       29.84F
SILVER BAY     SUNNY     72  54  53 NE12G18   29.86F
G MARAIS ARPRT MOSUNNY   72  54  53 E5        29.93S
$$
MNZ029>031-032-039>041-046>048-054>057-064-220000-
   West Central Minnesota

CITY           SKY/WX    TMP DP  RH WIND       PRES   REMARKS
FERGUS FALLS   SUNNY     84  72  65 S13       29.72F
WHEATON        SUNNY     86  72  62 SE7       29.77F THUNDER HX  92
MORRIS         SUNNY     88  72  58 SE15      29.78F HX  94
ALEXANDRIA     MOSUNNY   82  71  69 S14       29.81F
ELBOW LAKE     FAIR      82  75  79 S9        29.77F HAZE
WADENA         SUNNY     82  70  65 S9        29.75F
GLENWOOD       SUNNY     82  72  69 S13       29.82F
APPLETON       SUNNY     88  72  58 S13       29.78S HX  94
BENSON         PTSUNNY   84  73  70 S13       29.80F HX  91
ORTONVILLE     SUNNY     86  73  66 SE9       29.77F HX  93
MADISON        SUNNY     88  75  66 SE12      29.78S HX  97
WILLMAR        FAIR      82  73  74 S10G16    29.82F
$$
MNZ033>034-036-042>043-049>051-058-059-220000-
   Central Minnesota

CITY           SKY/WX    TMP DP  RH WIND       PRES   REMARKS
ST CLOUD       CLOUDY    80  72  76 S13       29.81F
SAUK CENTRE    MOCLDY    83  72  69 S9        29.81F
PAYNESVILLE    MOSUNNY   82  72  70 S9G16     29.83S
AITKIN         MOSUNNY   81  70  69 S13       29.80S
PINE RIVER     PTSUNNY   82  70  65 S8        29.82S
BRAINERD       PTSUNNY   81  70  69 S10       29.79F
STAPLES        MOSUNNY   82  70  65 S14G22    29.75F
LONG PRAIRIE   PTSUNNY   81  72  74 SE9G18    29.81F
LITTLE FALLS   MOSUNNY   81  68  65 S7        29.81F
LITCHFIELD     PTSUNNY   82  73  74 S5        29.82F
BUFFALO        PTSUNNY   80  69  68 S7        29.84F
MAPLE LAKE     CLOUDY    82  73  75 S6        29.83F
HUTCHINSON     PTSUNNY   81  73  75 SE6       29.84F
$$
MNZ037-044-045-052-053-220000-
   East Central Minnesota

CITY           SKY/WX    TMP DP  RH WIND       PRES   REMARKS
PRINCETON      CLOUDY    82  72  69 S10G16    29.82F
MORA           SUNNY     79  68  69 SW7       29.84F
CAMBRIDGE      MOSUNNY   82  70  65 S8        29.81F
RUSH CITY      CLOUDY    78  71  77 SE6       29.83F
MOOSE LAKE     PTSUNNY   81  64  57 S7        29.81S
HINCKLEY       CLOUDY    77  72  83 S8        29.84S
CLOQUET        MOSUNNY   72  57  60 E8        29.86R
MCGREGOR       PTSUNNY   82  68  61 S8        29.82S
$$
MNZ071>073-080-081-089-090-097-098-220000-
   Southwest Minnesota

CITY           SKY/WX    TMP DP  RH WIND       PRES   REMARKS
MONTEVIDEO     MOSUNNY   88  73  62 S12       29.80S HX  96
GRANITE FALLS  MOSUNNY   86  74  68 SE10G16   29.81F HX  94
CANBY          MOSUNNY   89  71  56 CALM      29.80R HX  95
MARSHALL       MOSUNNY   84  72  67 S14       29.80F
REDWOOD FALLS  SUNNY     82  70  66 S16       29.81F
OLIVIA         PTSUNNY   81  70  69 S12       29.81F
PIPESTONE      SUNNY     82  72  69 S10       29.83F
WINDOM         SUNNY     79  68  69 SE13      29.84F
WORTHINGTON    MOSUNNY   79  72  79 SE10      29.84F
JACKSON        CLOUDY    79  68  69 CALM      29.84F
SLAYTON        MOSUNNY   80  71  73 SE12      29.85S
$$
MNZ065>067-074>077-082>085-091>093-220000-
   South Central Minnesota

CITY           SKY/WX    TMP DP  RH WIND       PRES   REMARKS
MANKATO        MOSUNNY   79  69  71 S10       29.83F
NEW ULM        SUNNY     81  68  65 S12       29.82F
ST JAMES       MOSUNNY   79  68  69 SE10      29.83F
FAIRMONT       MOSUNNY   78  70  76 SE10      29.83F
GLENCOE        PTSUNNY   82  74  77 S7        29.83F
FARIBAULT      SUNNY     81  68  65 SE8       29.85F
OWATONNA       SUNNY     79  66  65 SE14G21   29.84F
WASECA         MOSUNNY   77  66  69 SE13G18   29.85F
ALBERT LEA     PTSUNNY   75  66  73 SE10      29.84F
$$
MNZ078>079-086>088-094>096-220000-
   Southeast Minnesota

CITY           SKY/WX    TMP DP  RH WIND       PRES   REMARKS
ROCHESTER      MOSUNNY   73  68  84 SE9       29.87F
RED WING       MOSUNNY   81  64  57 SE6       29.84F
STANTON        MOSUNNY   80  67  64 S8        29.83F
DODGE CENTER   MOSUNNY   75  64  69 SE10      29.86F
WINONA         CLOUDY    73  68  83 SE5       29.87F
AUSTIN         MOSUNNY   73  66  78 SE6       29.85F
PRESTON        PTSUNNY   71  66  84 SE8       29.87F
$$
ABBREVIATIONS USED IN REMARKS
   TC - TEMPERATURES IN CELSIUS
  WCI - WIND CHILL INDEX
   HX - HEAT INDEX
  VSB - VISIBILITY
$$




USA.gov is the U.S. government's official web portal to all federal, state and local government web resources and services.